W5HKR Weather Reports


time (UTC)temp
C
wind
direction
speed
KPH
gust
KPH
rain 1hr
cm
rain 24hr
cm
rain mn
cm
humidity
%
barometer
mb
20260506165324 18 269 20.9 22.5 0.00 0.00 0.00 91 990.6
20260506164825 18 269 19.3 20.9 0.00 0.00 0.00 91 990.6
20260506164325 26 270 16.1 20.9 0.00 0.00 0.00 83 982.7
20260506163955 26 269 16.1 20.9 0.00 0.00 0.00 84 982.7
20260506163825 26 268 19.3 20.9 0.00 0.00 0.00 85 982.5
20260506163325 18 267 16.1 20.9 0.00 0.00 0.00 91 990.6
20260506162824 25 266 14.5 22.5 0.00 0.00 0.00 84 983.1
20260506162325 25 271 14.5 22.5 0.00 0.00 0.00 85 982.9
20260506162155 25 273 14.5 22.5 0.00 0.00 0.00 85 982.7
20260506161825 25 273 19.3 19.3 0.00 0.00 0.00 86 982.8
20260506161325 18 269 16.1 20.9 0.00 0.00 0.00 91 990.6
20260506160825 18 267 16.1 20.9 0.00 0.00 0.00 91 990.6
20260506160354 18 269 16.1 20.9 0.00 0.00 0.00 91 990.6
20260506160325 18 271 16.1 20.9 0.00 0.00 0.00 91 990.6
20260506155825 18 272 16.1 19.3 0.00 0.00 0.00 91 990.6
20260506155325 25 267 16.1 20.9 0.00 0.00 0.00 89 982.5
20260506154824 25 269 19.3 19.3 0.00 0.00 0.00 89 982.5
20260506154555 18 269 16.1 19.3 0.00 0.00 0.00 91 990.6
20260506154325 25 271 16.1 19.3 0.00 0.00 0.00 88 982.4
20260506153825 18 269 16.1 19.3 0.00 0.00 0.00 91 990.6
20260506153325 18 269 16.1 20.9 0.00 0.00 0.00 91 990.6
20260506152755 18 271 19.3 19.3 0.00 0.00 0.00 91 990.6
20260506152324 18 269 16.1 19.3 0.00 0.00 0.00 91 990.6
20260506151824 18 270 16.1 19.3 0.00 0.00 0.00 91 990.6
20260506151324 24 271 16.1 19.3 0.00 0.00 0.00 89 981.8
20260506150955 24 269 16.1 19.3 0.00 0.00 0.00 89 981.7
20260506150824 18 268 16.1 19.3 0.00 0.00 0.00 91 990.6
20260506150325 18 266 16.1 19.3 0.00 0.00 0.00 91 990.6
20260506145824 24 271 16.1 19.3 0.00 0.00 0.00 89 982.0
20260506145324 18 271 19.3 19.3 0.00 0.00 0.00 91 990.6
20260506145155 24 269 16.1 19.3 0.00 0.00 0.00 90 982.0
20260506144823 24 270 16.1 19.3 0.00 0.00 0.00 90 981.7
20260506144325 18 269 16.1 19.3 0.00 0.00 0.00 91 990.6
20260506143824 24 272 16.1 19.3 0.00 0.00 0.00 90 982.0
20260506143355 23 269 16.1 19.3 0.00 0.00 0.00 90 981.9
20260506143324 23 269 14.5 19.3 0.00 0.00 0.00 90 982.1
20260506142325 24 267 16.1 19.3 0.00 0.00 0.00 89 981.4
20260506141823 24 269 16.1 19.3 0.00 0.00 0.00 90 981.4
20260506141556 24 268 16.1 19.3 0.00 0.00 0.00 90 981.2
20260506141324 24 270 19.3 20.9 0.00 0.00 0.00 90 981.6
20260506140824 24 269 16.1 19.3 0.00 0.00 0.00 90 981.3
20260506140324 18 265 16.1 19.3 0.00 0.00 0.00 91 990.6
20260506135754 23 267 16.1 20.9 0.00 0.00 0.00 91 980.7
20260506135323 23 267 16.1 19.3 0.00 0.00 0.00 91 980.7
20260506134824 23 272 19.3 19.3 0.00 0.00 0.00 91 980.7
20260506134324 18 269 16.1 19.3 0.00 0.00 0.00 91 990.6
20260506133955 18 267 16.1 19.3 0.00 0.00 0.00 91 990.6
20260506133824 23 271 16.1 20.9 0.00 0.00 0.00 91 980.7
20260506132154 23 269 19.3 19.3 0.00 0.00 0.00 91 980.7
20260506131825 23 264 16.1 19.3 0.00 0.00 0.00 91 980.7
20260506131324 18 265 16.1 19.3 0.00 0.00 0.00 91 990.6
20260506130825 18 271 19.3 20.9 0.00 0.00 0.00 91 990.6
20260506130355 18 268 16.1 19.3 0.00 0.00 0.00 91 990.6
20260506130325 23 269 14.5 19.3 0.00 0.00 0.00 92 980.6
20260506125824 23 267 16.1 19.3 0.00 0.00 0.00 92 980.4
20260506125324 18 274 16.1 19.3 0.00 0.00 0.00 91 990.6
20260506124823 23 265 16.1 19.3 0.00 0.00 0.00 92 981.0
20260506124555 23 273 14.5 19.3 0.00 0.00 0.00 92 980.4
20260506124324 18 264 16.1 19.3 0.00 0.00 0.00 91 990.6
20260506123824 23 267 16.1 19.3 0.00 0.00 0.00 92 980.6
20260506123323 18 266 14.5 19.3 0.00 0.00 0.00 91 990.6
20260506122825 18 263 16.1 19.3 0.00 0.00 0.00 91 990.6
20260506122754 18 263 16.1 19.3 0.00 0.00 0.00 91 990.6
20260506122325 18 270 16.1 20.9 0.00 0.00 0.00 91 990.6
20260506121824 18 269 16.1 19.3 0.00 0.00 0.00 91 990.6
20260506121324 18 271 16.1 19.3 0.00 0.00 0.00 91 990.6
20260506120954 23 267 16.1 19.3 0.00 0.00 0.00 92 980.4
20260506120323 18 268 16.1 19.3 0.00 0.00 0.00 91 990.6
20260506115824 23 267 16.1 19.3 0.00 0.00 0.00 92 980.6
20260506115324 18 271 16.1 19.3 0.00 0.00 0.00 91 990.6
20260506115155 18 272 16.1 19.3 0.00 0.00 0.00 91 990.6
20260506114824 23 270 16.1 20.9 0.00 0.00 0.00 92 980.0
20260506114326 23 269 16.1 19.3 0.00 0.00 0.00 91 980.0
20260506113825 23 267 16.1 19.3 0.00 0.00 0.00 91 980.4
20260506113356 18 269 16.1 19.3 0.00 0.00 0.00 91 990.6
20260506113325 23 271 16.1 19.3 0.00 0.00 0.00 91 980.4
20260506112824 18 264 16.1 19.3 0.00 0.00 0.00 91 990.6
20260506112325 23 269 16.1 19.3 0.00 0.00 0.00 91 980.2
20260506111824 18 269 16.1 19.3 0.00 0.00 0.00 91 990.6
20260506111554 18 269 16.1 19.3 0.00 0.00 0.00 91 990.6
20260506111326 18 271 16.1 19.3 0.00 0.00 0.00 91 990.6
20260506110824 23 268 16.1 19.3 0.00 0.00 0.00 91 980.0
20260506110324 23 269 16.1 19.3 0.00 0.00 0.00 91 979.9
20260506105756 18 269 16.1 19.3 0.00 0.00 0.00 91 990.6
20260506105325 23 269 16.1 19.3 0.00 0.00 0.00 91 980.0
20260506104824 18 269 16.1 19.3 0.00 0.00 0.00 91 990.6
20260506104325 18 267 16.1 19.3 0.00 0.00 0.00 91 990.6
20260506103955 23 267 16.1 19.3 0.00 0.00 0.00 90 980.0
20260506103824 23 269 16.1 19.3 0.00 0.00 0.00 90 979.7
20260506103324 23 269 16.1 19.3 0.00 0.00 0.00 90 980.0
20260506102825 18 267 16.1 19.3 0.00 0.00 0.00 91 990.6
20260506102324 23 269 16.1 19.3 0.00 0.00 0.00 90 980.0
20260506102155 23 271 16.1 19.3 0.00 0.00 0.00 90 979.8
20260506101825 18 270 16.1 19.3 0.00 0.00 0.00 91 990.6
20260506101324 23 269 16.1 19.3 0.00 0.00 0.00 90 980.0
20260506100825 23 268 16.1 20.9 0.00 0.00 0.00 90 979.7
20260506100355 23 268 16.1 19.3 0.00 0.00 0.00 90 979.8
20260506100324 23 268 16.1 20.9 0.00 0.00 0.00 90 979.7
20260506095824 23 271 16.1 22.5 0.00 0.00 0.00 90 980.0
20260506095325 23 272 16.1 19.3 0.00 0.00 0.00 90 980.0
20260506094824 23 271 20.9 22.5 0.00 0.00 0.00 90 979.7
20260506094555 18 266 19.3 22.5 0.00 0.00 0.00 91 990.6
20260506094326 23 272 16.1 20.9 0.00 0.00 0.00 90 979.7
20260506093325 18 271 19.3 22.5 0.00 0.00 0.00 91 990.6
20260506092755 18 268 16.1 19.3 0.00 0.00 0.00 91 990.6
20260506092324 18 266 16.1 19.3 0.00 0.00 0.00 91 990.6
20260506091824 23 269 16.1 20.9 0.00 0.00 0.00 89 980.0
20260506091324 23 274 19.3 20.9 0.00 0.00 0.00 89 980.0
20260506090956 18 269 16.1 19.3 0.00 0.00 0.00 91 990.6
20260506090824 18 269 14.5 20.9 0.00 0.00 0.00 91 990.6
20260506090324 18 269 16.1 22.5 0.00 0.00 0.00 91 990.6
20260506085824 23 268 16.1 20.9 0.00 0.00 0.00 89 979.7
20260506085325 23 269 16.1 20.9 0.00 0.00 0.00 89 979.7
20260506085156 23 271 19.3 19.3 0.00 0.00 0.00 89 979.7
20260506084325 18 268 19.3 20.9 0.00 0.00 0.00 91 990.6
20260506083825 18 269 16.1 20.9 0.00 0.00 0.00 91 990.6
20260506083356 18 268 19.3 20.9 0.00 0.00 0.00 91 990.6
20260506083324 18 266 19.3 20.9 0.00 0.00 0.00 91 990.6
20260506082824 24 272 16.1 20.9 0.00 0.00 0.00 89 979.8
20260506082326 18 269 19.3 20.9 0.00 0.00 0.00 91 990.6
20260506081825 24 267 19.3 20.9 0.00 0.00 0.00 88 979.4
20260506081555 18 266 19.3 20.9 0.00 0.00 0.00 91 990.6
20260506081326 18 267 19.3 20.9 0.00 0.00 0.00 91 990.6
20260506080324 24 268 19.3 20.9 0.00 0.00 0.00 88 979.7
20260506073324 24 268 16.1 19.3 0.00 0.00 0.00 88 980.3
20260506072324 24 269 19.3 20.9 0.00 0.00 0.00 88 980.2
20260506072155 18 269 19.3 19.3 0.00 0.00 0.00 91 990.6
20260506071825 18 267 19.3 20.9 0.00 0.00 0.00 91 990.6
20260506071325 24 265 19.3 20.9 0.00 0.00 0.00 88 980.7
20260506070824 18 266 14.5 22.5 0.00 0.00 0.00 91 990.6
20260506070355 24 270 16.1 20.9 0.00 0.00 0.00 88 980.6
20260506070325 24 268 14.5 20.9 0.00 0.00 0.00 88 980.6
20260506062325 24 269 20.9 24.1 0.00 0.00 0.00 88 980.0
20260506061825 18 271 19.3 25.7 0.00 0.00 0.00 91 990.6
20260506061325 24 271 19.3 22.5 0.00 0.00 0.00 88 980.4
20260506060956 24 268 19.3 22.5 0.00 0.00 0.00 88 980.3
20260506060324 24 274 19.3 27.4 0.00 0.00 0.00 88 980.7
20260506051325 24 267 16.1 24.1 0.00 0.00 0.00 88 980.7
20260506050325 18 265 16.1 24.1 0.00 0.00 0.00 91 990.6
20260506044825 18 263 14.5 20.9 0.00 0.00 0.00 91 990.6
20260506044325 18 265 19.3 24.1 0.00 0.00 0.00 91 990.6
20260506043956 24 273 19.3 20.9 0.00 0.00 0.00 88 980.6
20260506043826 24 271 16.1 20.9 0.00 0.00 0.00 88 980.7
20260506043325 24 271 16.1 20.9 0.00 0.00 0.00 88 980.4
20260506042826 24 269 16.1 20.9 0.00 0.00 0.00 88 980.2
20260506042324 24 268 20.9 22.5 0.00 0.00 0.00 88 980.5
20260506042157 18 271 19.3 20.9 0.00 0.00 0.00 91 990.6
20260506041826 18 265 16.1 22.5 0.00 0.00 0.00 91 990.6
20260506041326 24 274 16.1 20.9 0.00 0.00 0.00 89 980.3
20260506040357 18 269 16.1 20.9 0.00 0.00 0.00 91 990.6
20260506040325 18 269 19.3 20.9 0.00 0.00 0.00 91 990.6
20260506035826 24 272 16.1 20.9 0.00 0.00 0.00 88 979.7
20260506034557 24 268 19.3 20.9 0.00 0.00 0.00 88 980.0
20260506034325 18 271 19.3 22.5 0.00 0.00 0.00 91 990.6
20260506033827 25 268 19.3 20.9 0.00 0.00 0.00 87 979.5
20260506033327 18 265 16.1 20.9 0.00 0.00 0.00 91 990.6
20260506032825 25 262 16.1 22.5 0.00 0.00 0.00 87 979.3
20260506032755 18 263 16.1 22.5 0.00 0.00 0.00 91 990.6
20260506032325 25 267 16.1 24.1 0.00 0.00 0.00 86 979.7
20260506031825 25 270 20.9 22.5 0.00 0.00 0.00 86 979.3
20260506031324 18 264 19.3 24.1 0.00 0.00 0.00 91 990.6
20260506030957 25 280 22.5 22.5 0.00 0.00 0.00 85 979.9
20260506030825 25 272 20.9 22.5 0.00 0.00 0.00 85 979.6
20260506030325 18 271 19.3 24.1 0.00 0.00 0.00 91 990.6
20260506025824 18 268 16.1 25.7 0.00 0.00 0.00 91 990.6
20260506025156 25 271 19.3 22.5 0.00 0.00 0.00 84 978.7
20260506024326 18 272 22.5 25.7 0.00 0.00 0.00 91 990.6
20260506023825 18 267 19.3 20.9 0.00 0.00 0.00 91 990.6
20260506023357 18 266 16.1 25.7 0.00 0.00 0.00 91 990.6
20260506023326 18 265 16.1 25.7 0.00 0.00 0.00 91 990.6
20260506022826 26 269 16.1 25.7 0.00 0.00 0.00 82 979.3
20260506022326 18 270 19.3 27.4 0.00 0.00 0.00 91 990.6
20260506021825 26 266 16.1 22.5 0.00 0.00 0.00 81 978.7
20260506021557 18 269 20.9 22.5 0.00 0.00 0.00 91 990.6
20260506021326 26 264 16.1 20.9 0.00 0.00 0.00 81 978.7
20260506020825 26 272 19.3 25.7 0.00 0.00 0.00 80 978.3
20260506020326 18 268 19.3 22.5 0.00 0.00 0.00 91 990.6
20260506015756 18 272 19.3 24.1 0.00 0.00 0.00 91 990.6
20260506015326 27 262 16.1 22.5 0.00 0.00 0.00 78 978.0
20260506014826 18 267 19.3 24.1 0.00 0.00 0.00 91 990.6
20260506014326 27 267 19.3 22.5 0.00 0.00 0.00 77 978.9
20260506013956 27 270 19.3 20.9 0.00 0.00 0.00 76 978.4
20260506013828 18 268 19.3 24.1 0.00 0.00 0.00 91 990.6
20260506013326 27 262 20.9 22.5 0.00 0.00 0.00 76 978.0
20260506012825 27 270 19.3 22.5 0.00 0.00 0.00 75 978.0
20260506012325 28 264 19.3 22.5 0.00 0.00 0.00 74 978.3
20260506012156 28 257 19.3 24.1 0.00 0.00 0.00 74 978.3
20260506011825 28 269 19.3 24.1 0.00 0.00 0.00 73 978.0
20260506011326 18 264 19.3 22.5 0.00 0.00 0.00 91 990.6
20260506010826 18 267 20.9 22.5 0.00 0.00 0.00 91 990.6
20260506010356 18 268 19.3 22.5 0.00 0.00 0.00 91 990.6
20260506010325 28 265 20.9 24.1 0.00 0.00 0.00 72 977.6
20260506005824 28 272 19.3 22.5 0.00 0.00 0.00 72 977.6
20260506005325 28 268 19.3 22.5 0.00 0.00 0.00 72 977.9
20260506004555 18 261 19.3 24.1 0.00 0.00 0.00 91 990.6
20260506004324 28 267 20.9 22.5 0.00 0.00 0.00 72 977.9
20260506003826 18 267 19.3 24.1 0.00 0.00 0.00 91 990.6
20260506003326 28 269 19.3 22.5 0.00 0.00 0.00 71 977.6
20260506002828 18 270 19.3 22.5 0.00 0.00 0.00 91 990.6
20260506002756 18 270 19.3 22.5 0.00 0.00 0.00 91 990.6
20260506002325 28 273 22.5 24.1 0.00 0.00 0.00 71 978.0
20260506001826 29 269 20.9 24.1 0.00 0.00 0.00 71 978.0
20260506001325 18 268 20.9 25.7 0.00 0.00 0.00 91 990.6
20260506000956 29 271 20.9 24.1 0.00 0.00 0.00 70 977.4
20260506000826 29 267 19.3 27.4 0.00 0.00 0.00 70 977.6
20260506000326 29 263 22.5 22.5 0.00 0.00 0.00 70 977.9
20260505235826 18 276 22.5 24.1 0.00 0.00 0.00 91 990.6
20260505235326 30 272 20.9 25.7 0.00 0.00 0.00 68 977.3
20260505235156 18 274 20.9 24.1 0.00 0.00 0.00 91 990.6
20260505234824 18 268 20.9 24.1 0.00 0.00 0.00 91 990.6
20260505234326 18 277 25.7 25.7 0.00 0.00 0.00 91 990.6
20260505233826 18 269 20.9 25.7 0.00 0.00 0.00 91 990.6
20260505233357 30 269 20.9 27.4 0.00 0.00 0.00 67 977.2
20260505233325 30 268 20.9 27.4 0.00 0.00 0.00 67 977.6
20260505232826 30 273 25.7 29.0 0.00 0.00 0.00 66 977.6
20260505232326 30 268 20.9 25.7 0.00 0.00 0.00 67 977.4
20260505231826 31 270 20.9 29.0 0.00 0.00 0.00 66 976.8
20260505231556 18 266 22.5 29.0 0.00 0.00 0.00 91 990.6
20260505231325 18 269 20.9 25.7 0.00 0.00 0.00 91 990.6
20260505230825 18 272 22.5 25.7 0.00 0.00 0.00 91 990.6
20260505230325 31 264 22.5 25.7 0.00 0.00 0.00 66 977.3
20260505225829 18 268 22.5 32.2 0.00 0.00 0.00 91 990.6
20260505225756 18 268 22.5 32.2 0.00 0.00 0.00 91 990.6
20260505225326 31 269 20.9 24.1 0.00 0.00 0.00 65 977.1
20260505224825 31 267 22.5 24.1 0.00 0.00 0.00 66 977.3
20260505224328 18 265 22.5 24.1 0.00 0.00 0.00 91 990.6
20260505223957 30 269 22.5 25.7 0.00 0.00 0.00 68 977.0
20260505223827 18 270 20.9 25.7 0.00 0.00 0.00 91 990.6
20260505223326 30 273 22.5 27.4 0.00 0.00 0.00 66 977.5
20260505222826 18 271 22.5 27.4 0.00 0.00 0.00 91 990.6
20260505222326 18 268 24.1 24.1 0.00 0.00 0.00 91 990.6
20260505222156 18 268 22.5 24.1 0.00 0.00 0.00 91 990.6
20260505221825 18 266 22.5 24.1 0.00 0.00 0.00 91 990.6
20260505221326 31 263 20.9 25.7 0.00 0.00 0.00 62 977.4
20260505220356 30 268 24.1 27.4 0.00 0.00 0.00 65 977.7
20260505220325 18 265 24.1 27.4 0.00 0.00 0.00 91 990.6
20260505215326 18 273 24.1 25.7 0.00 0.00 0.00 91 990.6
20260505214825 18 270 22.5 24.1 0.00 0.00 0.00 91 990.6
20260505214557 18 275 22.5 25.7 0.00 0.00 0.00 91 990.6
20260505214326 30 268 24.1 25.7 0.00 0.00 0.00 64 977.6
20260505213826 31 271 19.3 27.4 0.00 0.00 0.00 62 978.0
20260505213325 18 270 24.1 29.0 0.00 0.00 0.00 91 990.6
20260505212757 31 272 24.1 27.4 0.00 0.00 0.00 62 978.0
20260505212326 18 266 24.1 27.4 0.00 0.00 0.00 91 990.6
20260505211825 31 268 24.1 25.7 0.00 0.00 0.00 64 978.2
20260505211326 31 267 24.1 29.0 0.00 0.00 0.00 66 978.2
20260505210956 30 268 20.9 29.0 0.00 0.00 0.00 64 978.3
20260505210826 31 276 24.1 29.0 0.00 0.00 0.00 64 978.2
20260505210325 30 270 20.9 24.1 0.00 0.00 0.00 65 978.3
20260505205825 30 270 24.1 29.0 0.00 0.00 0.00 65 978.7
20260505205325 30 268 22.5 29.0 0.00 0.00 0.00 65 978.7
20260505205156 30 269 22.5 29.0 0.00 0.00 0.00 66 978.7
20260505204825 18 269 20.9 25.7 0.00 0.00 0.00 91 990.6
20260505203826 30 266 24.1 29.0 0.00 0.00 0.00 64 978.9
20260505203357 18 274 24.1 29.0 0.00 0.00 0.00 91 990.6
20260505203325 18 271 24.1 29.0 0.00 0.00 0.00 91 990.6
20260505202827 30 267 24.1 25.7 0.00 0.00 0.00 65 978.9
20260505202325 30 269 24.1 32.2 0.00 0.00 0.00 65 979.0
20260505201828 30 271 25.7 27.4 0.00 0.00 0.00 65 979.3
20260505201556 18 274 25.7 27.4 0.00 0.00 0.00 91 990.6
20260505201325 18 272 22.5 29.0 0.00 0.00 0.00 91 990.6
20260505200825 30 268 24.1 27.4 0.00 0.00 0.00 66 979.2
20260505200326 30 269 22.5 27.4 0.00 0.00 0.00 68 979.1
20260505195757 30 274 20.9 25.7 0.00 0.00 0.00 67 978.8
20260505195325 30 267 22.5 29.0 0.00 0.00 0.00 68 979.5
20260505194326 29 273 22.5 27.4 0.00 0.00 0.00 67 979.3
20260505193956 29 270 22.5 25.7 0.00 0.00 0.00 67 979.6
20260505193826 18 266 22.5 25.7 0.00 0.00 0.00 91 990.6
20260505193326 29 270 24.1 27.4 0.00 0.00 0.00 67 979.4
20260505192325 18 273 22.5 25.7 0.00 0.00 0.00 91 990.6
20260505192157 18 268 22.5 25.7 0.00 0.00 0.00 91 990.6
20260505191826 18 268 22.5 25.7 0.00 0.00 0.00 91 990.6
20260505191325 28 267 22.5 24.1 0.00 0.00 0.00 71 980.0
20260505190826 18 267 20.9 22.5 0.00 0.00 0.00 91 990.6
20260505190356 18 268 22.5 24.1 0.00 0.00 0.00 91 990.6
20260505190326 18 268 22.5 24.1 0.00 0.00 0.00 91 990.6
20260505185825 28 267 22.5 27.4 0.00 0.00 0.00 71 980.6
20260505185326 18 268 22.5 24.1 0.00 0.00 0.00 91 990.6
20260505184825 18 267 22.5 24.1 0.00 0.00 0.00 91 990.6
20260505184557 27 269 22.5 22.5 0.00 0.00 0.00 73 980.0
20260505184325 27 267 22.5 25.7 0.00 0.00 0.00 73 980.4
20260505183826 27 268 20.9 22.5 0.00 0.00 0.00 74 980.4
20260505183326 18 267 22.5 24.1 0.00 0.00 0.00 91 990.6
20260505182757 27 268 22.5 22.5 0.00 0.00 0.00 73 980.4
20260505182326 27 268 20.9 24.1 0.00 0.00 0.00 75 980.7
20260505181827 18 267 20.9 25.7 0.00 0.00 0.00 91 990.6
20260505181326 27 269 20.9 24.1 0.00 0.00 0.00 74 980.4
20260505180957 27 269 24.1 24.1 0.00 0.00 0.00 74 980.4
20260505180826 18 269 20.9 25.7 0.00 0.00 0.00 91 990.6
20260505175830 26 267 22.5 24.1 0.00 0.00 0.00 76 980.8
20260505175327 26 269 20.9 25.7 0.00 0.00 0.00 75 980.4
20260505175157 26 268 22.5 25.7 0.00 0.00 0.00 76 980.4
20260505174826 18 271 22.5 24.1 0.00 0.00 0.00 91 990.6
20260505174325 18 267 20.9 25.7 0.00 0.00 0.00 91 990.6
20260505173825 18 267 22.5 29.0 0.00 0.00 0.00 91 990.6
20260505173357 26 268 20.9 24.1 0.00 0.00 0.00 77 980.7
20260505173326 26 267 20.9 24.1 0.00 0.00 0.00 76 981.0
20260505172826 18 265 22.5 24.1 0.00 0.00 0.00 91 990.6
20260505172325 26 261 19.3 22.5 0.00 0.00 0.00 78 980.4
20260505171829 18 266 22.5 24.1 0.00 0.00 0.00 91 990.6
20260505171556 26 266 20.9 24.1 0.00 0.00 0.00 78 980.8
20260505171325 18 266 22.5 25.7 0.00 0.00 0.00 91 990.6
20260505170826 18 268 22.5 24.1 0.00 0.00 0.00 91 990.6
20260505170327 25 264 22.5 24.1 0.00 0.00 0.00 80 981.1
20260505165757 18 267 20.9 24.1 0.00 0.00 0.00 91 990.6